Location: *
(38.4303°S, 157.0822°W)
Time: 14:26:13
(UTC+00:00)

Cosmos 2208 Rocket - Pass Details

Date: 21 May 2024
Orbit: 753 x 803 km, 74.0° (Epoch: 22 June)

Event Time Altitude Azimuth Distance (km) Brightness Sun altitude
Rises 16:11:29 0° 339° (NNW) 3,196 7.2 -15.1°
Reaches altitude 10° 16:13:50 10° 338° (NNW) 2,278 6.4 -14.6°
Maximum altitude 16:19:00 77° 251° (WSW) 786 3.9 -13.6°
Drops below altitude 10° 16:24:15 10° 165° (SSE) 2,318 6.5 -12.6°
Sets 16:26:40 0° 163° (SSE) 3,256 7.3 -12.2°
